Time,TemperatureF,DewpointF,PressureIn,WindDirection,WindDirectionDegrees,WindSpeedMPH,WindSpeedGustMPH,Humidity,HourlyPrecipIn,Conditions,Clouds,dailyrainin,SoftwareType,DateUTC
2013-03-17 00:07:00,56.0,54.0,30.11,SW,225,0.0,0.0,92,0.00,,,0.00,weatherlink.com 1.10,2013-03-17 04:07:00,
2013-03-17 00:22:00,55.7,54.0,30.11,SW,225,0.0,0.0,92,0.00,,,0.00,weatherlink.com 1.10,2013-03-17 04:22:00,
2013-03-17 00:37:00,55.7,54.0,30.10,SW,225,0.0,0.0,93,0.00,,,0.00,weatherlink.com 1.10,2013-03-17 04:37:00,
2013-03-17 00:52:00,55.9,54.0,30.10,SW,225,0.0,0.0,93,0.00,,,0.00,weatherlink.com 1.10,2013-03-17 04:52:00,
2013-03-17 01:07:00,56.2,54.0,30.10,SW,225,0.0,0.0,93,0.00,,,0.00,weatherlink.com 1.10,2013-03-17 05:07:00,
2013-03-17 01:22:00,56.1,54.0,30.09,SW,225,0.0,0.0,92,0.00,,,0.00,weatherlink.com 1.10,2013-03-17 05:22:00,
2013-03-17 01:37:00,56.1,54.0,30.09,SW,225,0.0,0.0,92,0.00,,,0.00,weatherlink.com 1.10,2013-03-17 05:37:00,
2013-03-17 01:52:00,56.3,54.0,30.09,SW,225,0.0,0.0,92,0.00,,,0.00,weatherlink.com 1.10,2013-03-17 05:52:00,
2013-03-17 02:07:00,56.3,54.0,30.09,SW,225,0.0,0.0,92,0.00,,,0.00,weatherlink.com 1.10,2013-03-17 06:07:00,
2013-03-17 02:22:00,56.1,54.0,30.09,SW,225,0.0,0.0,92,0.00,,,0.00,weatherlink.com 1.10,2013-03-17 06:22:00,
2013-03-17 02:52:00,55.8,54.0,30.08,SW,225,0.0,0.0,93,0.00,,,0.00,weatherlink.com 1.10,2013-03-17 06:52:00,
2013-03-17 03:07:00,55.7,54.0,30.07,SW,225,0.0,0.0,93,0.00,,,0.00,weatherlink.com 1.10,2013-03-17 07:07:00,
2013-03-17 03:22:00,55.2,53.0,30.07,SW,225,0.0,0.0,93,0.00,,,0.00,weatherlink.com 1.10,2013-03-17 07:22:00,
2013-03-17 03:37:00,54.9,53.0,30.07,SW,225,0.0,0.0,93,0.00,,,0.00,weatherlink.com 1.10,2013-03-17 07:37:00,
2013-03-17 03:52:00,54.8,53.0,30.06,SW,225,0.0,0.0,93,0.00,,,0.00,weatherlink.com 1.10,2013-03-17 07:52:00,
2013-03-17 04:07:00,54.4,53.0,30.05,SW,225,0.0,0.0,93,0.00,,,0.00,weatherlink.com 1.10,2013-03-17 08:07:00,
2013-03-17 04:22:00,54.5,53.0,30.05,SW,225,0.0,0.0,93,0.00,,,0.00,weatherlink.com 1.10,2013-03-17 08:22:00,
2013-03-17 04:53:00,54.5,53.0,30.04,SW,225,0.0,0.0,93,0.00,,,0.00,weatherlink.com 1.10,2013-03-17 08:53:00,
2013-03-17 05:07:00,54.4,53.0,30.04,SW,225,0.0,0.0,93,0.00,,,0.00,weatherlink.com 1.10,2013-03-17 09:07:00,
2013-03-17 05:22:00,54.6,53.0,30.05,SW,225,0.0,0.0,93,0.00,,,0.00,weatherlink.com 1.10,2013-03-17 09:22:00,
2013-03-17 05:37:00,54.7,53.0,30.05,SW,225,0.0,0.0,92,0.00,,,0.00,weatherlink.com 1.10,2013-03-17 09:37:00,
2013-03-17 05:53:00,54.5,52.0,30.04,SW,225,0.0,0.0,92,0.00,,,0.00,weatherlink.com 1.10,2013-03-17 09:53:00,
2013-03-17 06:08:00,54.5,53.0,30.05,SW,225,0.0,0.0,93,0.00,,,0.00,weatherlink.com 1.10,2013-03-17 10:08:00,
2013-03-17 06:23:00,54.4,53.0,30.05,SW,225,0.0,0.0,93,0.00,,,0.00,weatherlink.com 1.10,2013-03-17 10:23:00,
2013-03-17 06:38:00,54.2,52.0,30.06,SW,225,0.0,0.0,93,0.00,,,0.00,weatherlink.com 1.10,2013-03-17 10:38:00,
2013-03-17 06:53:00,54.5,53.0,30.07,SW,225,0.0,0.0,93,0.00,,,0.00,weatherlink.com 1.10,2013-03-17 10:53:00,
2013-03-17 07:08:00,54.0,52.0,30.07,SW,225,0.0,0.0,93,0.00,,,0.00,weatherlink.com 1.10,2013-03-17 11:08:00,
2013-03-17 07:23:00,54.0,52.0,30.08,SW,225,0.0,0.0,93,0.00,,,0.00,weatherlink.com 1.10,2013-03-17 11:23:00,
2013-03-17 07:38:00,53.8,52.0,30.08,SW,224,0.0,0.0,93,0.00,,,0.00,weatherlink.com 1.10,2013-03-17 11:38:00,
2013-03-17 07:53:00,53.9,52.0,30.09,SW,224,0.0,0.0,94,0.00,,,0.00,weatherlink.com 1.10,2013-03-17 11:53:00,
2013-03-17 08:08:00,54.2,53.0,30.09,SW,224,0.0,0.0,94,0.00,,,0.00,weatherlink.com 1.10,2013-03-17 12:08:00,
2013-03-17 08:23:00,54.5,53.0,30.10,East,79,3.0,5.0,93,0.00,,,0.00,weatherlink.com 1.10,2013-03-17 12:23:00,
2013-03-17 08:38:00,55.3,53.0,30.10,East,80,2.0,3.0,92,0.00,,,0.00,weatherlink.com 1.10,2013-03-17 12:38:00,
2013-03-17 08:53:00,56.0,54.0,30.11,East,82,0.0,1.0,91,0.00,,,0.00,weatherlink.com 1.10,2013-03-17 12:53:00,
2013-03-17 09:08:00,58.1,55.0,30.11,ESE,113,0.0,4.0,89,0.00,,,0.00,weatherlink.com 1.10,2013-03-17 13:08:00,
2013-03-17 09:23:00,59.4,55.0,30.11,ESE,111,0.0,2.0,86,0.00,,,0.00,weatherlink.com 1.10,2013-03-17 13:23:00,
2013-03-17 09:38:00,62.2,57.0,30.10,SE,127,0.0,3.0,83,0.00,,,0.00,weatherlink.com 1.10,2013-03-17 13:38:00,
2013-03-17 09:53:00,65.9,59.0,30.09,ESE,108,3.0,4.0,77,0.00,,,0.00,weatherlink.com 1.10,2013-03-17 13:53:00,
2013-03-17 10:08:00,67.5,59.0,30.11,ESE,107,0.0,6.0,73,0.00,,,0.00,weatherlink.com 1.10,2013-03-17 14:08:00,
2013-03-17 10:23:00,69.9,59.0,30.11,SE,146,2.0,7.0,68,0.00,,,0.00,weatherlink.com 1.10,2013-03-17 14:23:00,
2013-03-17 10:38:00,72.1,60.0,30.11,South,190,3.0,7.0,66,0.00,,,0.00,weatherlink.com 1.10,2013-03-17 14:38:00,
2013-03-17 10:53:00,73.2,60.0,30.12,SSE,150,0.0,9.0,64,0.00,,,0.00,weatherlink.com 1.10,2013-03-17 14:53:00,
2013-03-17 11:08:00,73.6,60.0,30.11,SE,130,1.0,5.0,63,0.00,,,0.00,weatherlink.com 1.10,2013-03-17 15:08:00,
2013-03-17 11:23:00,75.1,62.0,30.11,SE,138,3.0,5.0,63,0.00,,,0.00,weatherlink.com 1.10,2013-03-17 15:23:00,
2013-03-17 11:38:00,76.9,61.0,30.11,SE,142,1.0,7.0,59,0.00,,,0.00,weatherlink.com 1.10,2013-03-17 15:38:00,
2013-03-17 11:53:00,77.2,62.0,30.11,SE,146,0.0,5.0,60,0.00,,,0.00,weatherlink.com 1.10,2013-03-17 15:53:00,
2013-03-17 12:08:00,76.6,60.0,30.10,SSE,149,1.0,8.0,57,0.00,,,0.00,weatherlink.com 1.10,2013-03-17 16:08:00,
2013-03-17 12:23:00,76.7,61.0,30.09,South,180,1.0,6.0,59,0.00,,,0.00,weatherlink.com 1.10,2013-03-17 16:23:00,
2013-03-17 12:38:00,78.5,60.0,30.09,SSE,150,5.0,9.0,53,0.00,,,0.00,weatherlink.com 1.10,2013-03-17 16:38:00,
2013-03-17 12:54:00,79.8,58.0,30.08,ESE,113,0.0,7.0,47,0.00,,,0.00,weatherlink.com 1.10,2013-03-17 16:54:00,
2013-03-17 13:09:00,80.0,60.0,30.08,South,178,4.0,7.0,51,0.00,,,0.00,weatherlink.com 1.10,2013-03-17 17:09:00,
2013-03-17 13:24:00,79.0,59.0,30.08,South,173,3.0,8.0,51,0.00,,,0.00,weatherlink.com 1.10,2013-03-17 17:24:00,
2013-03-17 13:39:00,77.1,60.0,30.07,West,273,8.0,12.0,56,0.00,,,0.00,weatherlink.com 1.10,2013-03-17 17:39:00,
2013-03-17 13:54:00,76.8,60.0,30.07,SSW,210,3.0,14.0,57,0.00,,,0.00,weatherlink.com 1.10,2013-03-17 17:54:00,
2013-03-17 14:09:00,76.9,59.0,30.06,West,273,8.0,12.0,55,0.00,,,0.00,weatherlink.com 1.10,2013-03-17 18:09:00,
2013-03-17 14:24:00,77.4,59.0,30.05,SW,215,8.0,14.0,53,0.00,,,0.00,weatherlink.com 1.10,2013-03-17 18:24:00,
2013-03-17 14:39:00,76.8,59.0,30.04,SW,227,8.0,13.0,54,0.00,,,0.00,weatherlink.com 1.10,2013-03-17 18:39:00,
2013-03-17 14:54:00,75.5,60.0,30.03,SSW,193,6.0,14.0,58,0.00,,,0.00,weatherlink.com 1.10,2013-03-17 18:54:00,
2013-03-17 15:09:00,76.4,59.0,30.04,SSW,209,3.0,13.0,56,0.00,,,0.00,weatherlink.com 1.10,2013-03-17 19:09:00,
2013-03-17 15:24:00,76.1,59.0,30.03,SSW,207,7.0,16.0,55,0.00,,,0.00,weatherlink.com 1.10,2013-03-17 19:24:00,
2013-03-17 15:39:00,74.8,58.0,30.02,West,265,4.0,16.0,57,0.00,,,0.00,weatherlink.com 1.10,2013-03-17 19:39:00,
2013-03-17 15:54:00,74.2,58.0,30.01,SSW,202,2.0,16.0,58,0.00,,,0.00,weatherlink.com 1.10,2013-03-17 19:54:00,
2013-03-17 16:09:00,74.7,58.0,30.01,SSW,207,10.0,15.0,56,0.00,,,0.00,weatherlink.com 1.10,2013-03-17 20:09:00,
2013-03-17 16:24:00,75.6,58.0,30.01,WSW,239,4.0,13.0,55,0.00,,,0.00,weatherlink.com 1.10,2013-03-17 20:24:00,
2013-03-17 16:39:00,74.4,58.0,30.01,SW,229,4.0,11.0,57,0.00,,,0.00,weatherlink.com 1.10,2013-03-17 20:39:00,
2013-03-17 16:54:00,73.9,59.0,30.01,SW,233,6.0,10.0,59,0.00,,,0.00,weatherlink.com 1.10,2013-03-17 20:54:00,
2013-03-17 17:09:00,73.7,59.0,30.00,SSW,209,5.0,9.0,61,0.00,,,0.00,weatherlink.com 1.10,2013-03-17 21:09:00,
2013-03-17 17:24:00,74.3,58.0,30.00,SW,222,4.0,11.0,58,0.00,,,0.00,weatherlink.com 1.10,2013-03-17 21:24:00,
2013-03-17 17:39:00,73.7,59.0,30.00,SW,222,3.0,8.0,60,0.00,,,0.00,weatherlink.com 1.10,2013-03-17 21:39:00,
2013-03-17 17:54:00,73.1,59.0,30.00,South,190,4.0,11.0,61,0.00,,,0.00,weatherlink.com 1.10,2013-03-17 21:54:00,
2013-03-17 18:09:00,72.6,59.0,30.00,SW,221,4.0,9.0,62,0.00,,,0.00,weatherlink.com 1.10,2013-03-17 22:09:00,
2013-03-17 18:24:00,72.7,59.0,29.99,SW,235,4.0,9.0,62,0.00,,,0.00,weatherlink.com 1.10,2013-03-17 22:24:00,
2013-03-17 18:39:00,72.5,59.0,30.00,West,259,4.0,7.0,63,0.00,,,0.00,weatherlink.com 1.10,2013-03-17 22:39:00,
2013-03-17 18:54:00,72.5,59.0,30.00,SW,222,1.0,6.0,63,0.00,,,0.00,weatherlink.com 1.10,2013-03-17 22:54:00,
2013-03-17 19:09:00,72.8,60.0,29.99,SW,234,1.0,5.0,64,0.00,,,0.00,weatherlink.com 1.10,2013-03-17 23:09:00,
2013-03-17 19:24:00,72.1,59.0,30.00,WSW,245,2.0,7.0,64,0.00,,,0.00,weatherlink.com 1.10,2013-03-17 23:24:00,
2013-03-17 19:39:00,71.0,59.0,30.00,SSW,209,2.0,7.0,65,0.00,,,0.00,weatherlink.com 1.10,2013-03-17 23:39:00,
2013-03-17 19:54:00,70.0,58.0,30.00,SW,229,4.0,5.0,67,0.00,,,0.00,weatherlink.com 1.10,2013-03-17 23:54:00,
2013-03-17 20:09:00,69.3,59.0,30.00,SW,229,0.0,4.0,69,0.00,,,0.00,weatherlink.com 1.10,2013-03-18 00:09:00,
2013-03-17 20:24:00,68.8,59.0,30.01,SW,216,1.0,3.0,72,0.00,,,0.00,weatherlink.com 1.10,2013-03-18 00:24:00,
2013-03-17 20:39:00,68.5,59.0,30.01,SW,216,0.0,1.0,72,0.00,,,0.00,weatherlink.com 1.10,2013-03-18 00:39:00,
2013-03-17 20:54:00,68.1,60.0,30.02,SW,216,0.0,0.0,74,0.00,,,0.00,weatherlink.com 1.10,2013-03-18 00:54:00,
2013-03-17 21:09:00,67.8,60.0,30.02,SW,216,0.0,0.0,76,0.00,,,0.00,weatherlink.com 1.10,2013-03-18 01:09:00,
2013-03-17 21:24:00,67.1,61.0,30.02,SW,216,0.0,0.0,81,0.00,,,0.00,weatherlink.com 1.10,2013-03-18 01:24:00,
2013-03-17 21:39:00,66.1,61.0,30.03,SW,216,0.0,0.0,84,0.00,,,0.00,weatherlink.com 1.10,2013-03-18 01:39:00,
2013-03-17 21:54:00,65.6,61.0,30.03,SW,216,0.0,0.0,85,0.00,,,0.00,weatherlink.com 1.10,2013-03-18 01:54:00,
2013-03-17 22:09:00,65.2,60.0,30.03,SW,216,0.0,0.0,84,0.00,,,0.00,weatherlink.com 1.10,2013-03-18 02:09:00,
2013-03-17 22:24:00,64.8,60.0,30.04,SW,216,0.0,0.0,84,0.00,,,0.00,weatherlink.com 1.10,2013-03-18 02:24:00,
2013-03-17 22:39:00,64.4,60.0,30.03,SW,216,0.0,0.0,85,0.00,,,0.00,weatherlink.com 1.10,2013-03-18 02:39:00,
2013-03-17 22:54:00,64.0,60.0,30.03,SW,216,0.0,0.0,88,0.00,,,0.00,weatherlink.com 1.10,2013-03-18 02:54:00,
2013-03-17 23:09:00,63.6,60.0,30.03,SW,216,0.0,0.0,88,0.00,,,0.00,weatherlink.com 1.10,2013-03-18 03:09:00,
2013-03-17 23:24:00,63.2,60.0,30.03,SW,216,0.0,0.0,89,0.00,,,0.00,weatherlink.com 1.10,2013-03-18 03:24:00,
2013-03-17 23:39:00,62.5,59.0,30.04,SW,216,0.0,0.0,89,0.00,,,0.00,weatherlink.com 1.10,2013-03-18 03:39:00,
2013-03-17 23:54:00,62.3,60.0,30.03,SW,216,0.0,0.0,91,0.00,,,0.00,weatherlink.com 1.10,2013-03-18 03:54:00,